Location: Im Fang
(46.6019°N, 7.2397°E)
Time: 15:37:25
(UTC+00:00)

Cosmos 2263 Rocket - Pass Details

Date: 08 December 2019
Orbit: 824 x 848 km, 71.0° (Epoch: 25 January)

Event Time Altitude Azimuth Distance (km) Brightness Sun altitude
Rises 05:28:45 0° 209° (SSW) 3,359 5.2 -15.3°
Reaches altitude 10° 05:31:11 10° 211° (SSW) 2,426 4.5 -14.9°
Maximum altitude 05:36:45 77° 297° (WNW) 852 2.1 -14.0°
Drops below altitude 10° 05:42:20 10° 24° (NNE) 2,434 4.7 -13.1°
Sets 05:44:47 0° 26° (NNE) 3,370 5.4 -12.7°
